Flag for U.S.A. Weather past 2 weeks in Macon, Georgia, U.S.A.

Now
72 °F

Clear.


Feels Like: 76 °F
Forecast: 67 / 83 °F
Wind: 7 mph from Southeast

Location: Middle Georgia Regional Airport

Current Time: May 25, 2015 at 12:16:38 AM

Latest Report: May 24, 2015 at 10:53 PM


Visibility: 10 mi

Pressure: 30.23 "Hg

Humidity: 61%

Dew point: 58 °F

Location of MaconLocation

Historic Weather in Macon — Graph

°F

Macon temperature yesterday

Maximum temperature yesterday: 88 °F (at 5:53 PM)
Minimum temperature yesterday: 61 °F (at 2:53 AM)
Average temperature yesterday: 74 °F

Past Weeks' High & Low Weather Summary

 TemperatureHumidityPressure
High92 °F (May 11, 2:53 PM)100% (May 19, 1:53 AM)30.36 "Hg (May 19, 1:53 AM)
Low54 °F (May 23, 5:53 AM)20% (May 13, 3:53 PM)29.87 "Hg (May 20, 6:53 PM)
Average75 °F67%30.13 "Hg
* Reported May 9 9:53 PM — May 24 9:53 PM, Macon, Weather by CustomWeather, © 2015

Note: Actual official high and low records may vary slightly from our data, if they occured in-between our weather recording intervals... More about our weather records

Advertising

Macon weather history for previous 24 hours

 ConditionsComfort  
Time TempWeatherWind HumidityBarometerVisibility
9:53 PM
Sun, May 24
72 °FClear.6 mph61%30.21 "Hg10 mi
8:53 PM74 °FSunny.8 mph57%30.20 "Hg10 mi
7:53 PM81 °FSunny.7 mph44%30.19 "Hg10 mi
6:53 PM85 °FSunny.9 mph39%30.19 "Hg10 mi
5:53 PM88 °FScattered clouds.10 mph36%30.19 "Hg10 mi
4:53 PM87 °FPartly sunny.10 mph37%30.20 "Hg10 mi
3:53 PM87 °FScattered clouds.7 mph39%30.22 "Hg10 mi
2:53 PM86 °FScattered clouds.9 mph42%30.24 "Hg10 mi
1:53 PM83 °FScattered clouds.9 mph46%30.27 "Hg10 mi
12:53 PM82 °FScattered clouds.12 mph49%30.30 "Hg10 mi
11:53 AM81 °FScattered clouds.7 mph53%30.31 "Hg10 mi
10:53 AM78 °FBroken clouds.12 mph60%30.32 "Hg10 mi
9:53 AM76 °FPassing clouds.10 mph67%30.32 "Hg10 mi
8:53 AM71 °FPassing clouds.9 mph76%30.32 "Hg10 mi
7:53 AM66 °FScattered clouds.3 mph87%30.32 "Hg10 mi
6:53 AM63 °FOvercast.No wind93%30.31 "Hg8 mi
6:00 AM63 °FOvercast.3 mph94%30.31 "Hg9 mi
4:53 AM61 °FClear.3 mph93%30.28 "Hg8 mi
3:53 AM61 °FClear.No wind93%30.28 "Hg7 mi
2:53 AM61 °FPassing clouds.3 mph93%30.27 "Hg7 mi
1:53 AM63 °FClear.5 mph87%30.27 "Hg8 mi
12:53 AM63 °FClear.5 mph81%30.28 "Hg10 mi
Weather by CustomWeather, © 2015

See weather overviewHow to use our weather pages